This is the latest recevied weather packets stored in our database for station/object KY0TEQ-13. If no packets are shown the sender has not sent any weather packets the latest 1 day(s).
| Time | Temp. | Humidity | Pressure | Rain* | Wind** | Luminosity | Snow |
|---|---|---|---|---|---|---|---|
| 1778045528 | 5.56° C | 74% | 1297.8 hPa | 0 mm | - | 0 W/m² | - |
| 1778044924 | 5.56° C | 74% | 1297.7 hPa | 0 mm | - | 0 W/m² | - |
| 1778044621 | 5° C | 76% | 1297.7 hPa | 0 mm | - | 0 W/m² | - |
| 1778044317 | 5° C | 77% | 1297.6 hPa | 0 mm | - | 0 W/m² | - |
| 1778044016 | 5.56° C | 75% | 1297.7 hPa | 0 mm | - | 0 W/m² | - |
| 1778043105 | 5.56° C | 75% | 1297.4 hPa | 0 mm | - | 0 W/m² | - |
| 1778042803 | 5.56° C | 74% | 1297.7 hPa | 0 mm | - | 0 W/m² | - |
| 1778042500 | 5.56° C | 74% | 1297.4 hPa | 0 mm | - | 0 W/m² | - |
| 1778042197 | 5.56° C | 75% | 1297.4 hPa | 0 mm | - | 0 W/m² | - |
| 1778041895 | 5.56° C | 75% | 1297.6 hPa | 0 mm | - | 0 W/m² | - |
| 1778041594 | 5° C | 76% | 1297.4 hPa | 0 mm | - | 0 W/m² | - |
| 1778041291 | 5° C | 78% | 1297.6 hPa | 0 mm | - | 0 W/m² | - |
| 1778040990 | 5° C | 78% | 1297.1 hPa | 0 mm | - | 0 W/m² | - |
| 1778040686 | 5° C | 78% | 1297.2 hPa | 0 mm | - | 0 W/m² | - |
| 1778040384 | 5° C | 78% | 1297.4 hPa | 0 mm | - | 0 W/m² | - |
| 1778040081 | 5° C | 77% | 1297.2 hPa | 0 mm | - | 0 W/m² | - |
| 1778039777 | 5.56° C | 76% | 1297 hPa | 0 mm | - | 0 W/m² | - |
| 1778039473 | 5.56° C | 75% | 1296.8 hPa | 0 mm | - | 0 W/m² | - |
| 1778039171 | 6.11° C | 72% | 1297.1 hPa | 0 mm | - | 0 W/m² | - |
| 1778038868 | 6.11° C | 70% | 1296.7 hPa | 0 mm | - | 0 W/m² | - |
| 1778038565 | 6.11° C | 70% | 1296.7 hPa | 0 mm | - | 0 W/m² | - |
| 1778038262 | 6.11° C | 72% | 1296.6 hPa | 0 mm | - | 0 W/m² | - |
| 1778037959 | 6.11° C | 68% | 1296.5 hPa | 0 mm | - | 0 W/m² | - |
| 1778037656 | 6.11° C | 71% | 1296.7 hPa | 0 mm | - | 0 W/m² | - |
| 1778037353 | 6.11° C | 71% | 1296.7 hPa | 0 mm | - | 0 W/m² | - |
* Rain latest hour (hover to see other rain measurements)
** Current wind speed in m/s (hover to see current wind gust speed)